Hourly Data Report for October 08, 2013

All times are specified in Local Standard Time (LST). Add 1 hour to adjust for Daylight Saving Time where and when it is observed.

EMERSON AUTO
MANITOBA

49°00'00.000" N
97°14'15.000" W
242.00 m
5020881
71560
WEX

Download Data

Hourly Data (October 2013)
Hourly Data Report for October 8, 2013
Temp Definition
°C
Dew Point Temp Definition
°C
Rel Hum Definition
%
Wind Dir Definition
10's deg

Wind Spd Definition
km/h
Visibility Definition
km
Stn Press Definition
kPa
Hmdx Definition


Wind Chill Definition


Weather Definition


TIME
00:00 10.3 4.4 67 15 17   97.69     LegendNANA
01:00 10.3 4.2 66 15 19   97.60     LegendNANA
02:00 9.7 4.3 69 15 19   97.56     LegendNANA
03:00 9.7 4.7 71 17 24   97.48     LegendNANA
04:00 9.9 5.2 73 17 22   97.42     LegendNANA
05:00 9.4 5.3 76 15 11   97.37     LegendNANA
06:00 9.4 5.6 77 15 11   97.35     LegendNANA
07:00 9.6 5.7 77 15 17   97.29     LegendNANA
08:00 10.1 5.9 75 15 11   97.27     LegendNANA
09:00 11.7 6.6 71 18 17   97.30     LegendNANA
10:00 13.1 7.2 67 18 20   97.27     LegendNANA
11:00 14.3 7.4 63 18 20   97.23     LegendNANA
12:00 15.6 7.9 60 18 13   97.24     LegendNANA
13:00 16.7 8.4 58 16 11   97.28     LegendNANA
14:00 17.6 8.4 55 19 9   97.33     LegendNANA
15:00 18.3 8.1 51 18 4   97.34     LegendNANA
16:00 18.6 8.1 50 23 6   97.40     LegendNANA
17:00 17.9 8.8 55 17 6   97.44     LegendNANA
18:00 15.4 8.8 65 16 9   97.51     LegendNANA
19:00 13.4 8.6 73 16 7   97.58     LegendNANA
20:00 9.8 7.9 88 19 9   97.64     LegendNANA
21:00 8.0 6.3 89 21 6   97.70     LegendNANA
22:00 7.4 5.8 90 28 11   97.77     LegendNANA
23:00 6.8 3.3 78 27 9   97.83     LegendNANA

Notes on Data Quality.

Legend

  • E = Estimated
  • M = Missing
  • NA = Not Available
  • ‡ = Partner data that is not subject to review by the National Climate Archives
Date modified: